Location: Sweet Grass
(48.9965°N, 111.9649°W)
Time: 03:59:49
(UTC+00:00)

STARS - Visible Passes

Search period start: 29 March 2023 00:00
Search period end: 08 April 2023 00:00
Orbit: 616 x 633 km, 98.1° (Epoch: 28 March)

Date Brightness Start Highest point End Pass type
(mag) Time Alt. Az. Time Alt. Az. Time Alt. Az.
29 Mar ? 06:43:26 10° NNE 06:43:52 13° NNE 06:43:52 13° NNE visible
29 Mar ? 08:20:49 10° NNW 08:21:08 11° NNW 08:21:08 11° NNW visible
30 Mar ? 07:02:07 10° NNE 07:02:52 15° N 07:02:52 15° N visible
31 Mar ? 07:20:53 10° N 07:21:52 16° N 07:21:52 16° N visible
01 Apr ? 07:39:44 10° N 07:40:52 17° N 07:40:52 17° N visible
02 Apr ? 06:22:05 10° NNE 06:22:35 13° NNE 06:22:35 13° NNE visible
02 Apr ? 07:58:42 10° N 07:59:50 16° NNW 07:59:50 16° NNW visible
03 Apr ? 06:40:36 10° NNE 06:41:33 16° NNE 06:41:33 16° NNE visible
03 Apr ? 08:17:50 10° NNW 08:18:49 14° NNW 08:18:49 14° NNW visible
04 Apr ? 06:59:13 10° NNE 07:00:30 19° NNE 07:00:30 19° NNE visible
04 Apr ? 08:37:20 10° NNW 08:37:46 11° NW 08:37:46 11° NW visible
05 Apr ? 07:17:55 10° N 07:19:28 21° N 07:19:28 21° N visible
06 Apr ? 06:00:47 10° NE 06:01:08 12° NE 06:01:08 12° NE visible
06 Apr ? 07:36:43 10° N 07:38:24 21° NNW 07:38:24 21° NNW visible
07 Apr ? 06:19:05 10° NNE 06:20:04 16° NE 06:20:04 16° NE visible
07 Apr ? 07:55:36 10° N 07:57:20 19° NNW 07:57:20 19° NNW visible
